Regional Weather Roundup
Issued by NWS

Home | Current Version | Previous Version | Graphics & Text | Print | Product List | Glossary On
Versions: 1 2 3 4 5 6 7 8 9 10 11 12 13 14 15 16 17 18 19 20 21 22 23 24 25 26 27 28 29 30 31 32 33 34 35 36 37 38 39 40 41 42 43 44 45 46 47 48 49 50
865
ASUS44 KMEG 300300
RWRTN
TENNESSEE HOURLY STATE WEATHER ROUNDUP
NATIONAL WEATHER SERVICE MEMPHIS TN
1000 PM CDT FRI JUL 29 2016

TNZ002-004-019-021-049-052-054-088>092-300400-
WEST TENNESSEE

CITY           SKY/WX    TMP DP  RH WIND       PRES   REMARKS
MEMPHIS INTL   MOCLDY    75  71  87 S3        29.96R
NWS MEMPHIS      N/A     73 N/A N/A MISG        N/A
JACKSON        CLOUDY    74  73  97 S3        29.96S
DYERSBURG      CLOUDY   N/A N/A N/A MISG        N/A
UNION CITY     CLEAR     73  72  94 SE5       29.94R
PARIS          CLEAR     70  70 100 S8        29.95F
LEXINGTON      MOCLDY    72  72 100 SE3       29.96F
$$

TNZ008-025-027-028-033-062-065-066-300400-
NORTH MIDDLE TENNESSEE

CITY           SKY/WX    TMP DP  RH WIND       PRES   REMARKS
NASHVILLE      CLOUDY    80  73  79 SW3       29.98R THUNDER
CLARKSVILLE    CLOUDY    74  71  91 CALM      29.95F
COOKEVILLE     MOCLDY    75  73  94 CALM      30.00S
CROSSVILLE     PTCLDY    72  68  87 CALM      30.07R
$$

TNZ061-075-076-078-094-096-097-300400-
SOUTH MIDDLE TENNESSEE

CITY           SKY/WX    TMP DP  RH WIND       PRES   REMARKS
TULLAHOMA      PTCLDY    75  72  88 N10       30.03R
WINCHESTER     PTCLDY    75  73  94 CALM      30.02S
MCMINNVILLE    MOCLDY    79  77  94 CALM      30.02R
COLUMBIA       CLOUDY   N/A N/A N/A SW3       30.00S
SHELBYVILLE    MOCLDY    72  70  94 CALM      30.02F
$$

TNZ017-018-042-046-047-300400-
NORTHEAST TENNESSEE

CITY           SKY/WX    TMP DP  RH WIND       PRES   REMARKS
TRI CITIES     MOCLDY    70  68  93 CALM      30.04R
$$

TNZ012-013-036-069-073-074-300400-
CENTRAL EAST TENNESSEE

CITY           SKY/WX    TMP DP  RH WIND       PRES   REMARKS
KNOXVILLE      PTCLDY    74  72  93 CALM      30.02R
OAK RIDGE      CLEAR     76  71  85 CALM      30.04R
GATLINBURG     MOCLDY    72  70  94 CALM      30.03R
$$

TNZ083-085-099-300400-
SOUTHEAST TENNESSEE

CITY           SKY/WX    TMP DP  RH WIND       PRES   REMARKS
CHATTANOOGA    CLOUDY    82  71  69 SE6       30.01R
$$

SKY/WX REPORTED AS FAIR MEANS FEW OR NO CLOUDS BELOW
12 THOUSAND FEET.





USA.gov is the U.S. government's official web portal to all federal, state and local government web resources and services.